{"data":{"norad_id":61215,"epoch":"2026-05-24T21:57:21.578112Z","epoch_age_seconds":86412,"freshness":"FRESH","line1":"1 61215U 24171R   26144.91483308 -.00002264  00000+0 -64309-4 0  9994","line2":"2 61215  53.1613 328.0488 0001097  82.6394 277.4731 15.30208873 94043","mean_motion":15.30208873,"eccentricity":0.0001097,"inclination_deg":53.1613,"raan_deg":328.0488,"arg_perigee_deg":82.6394,"mean_anomaly_deg":277.4731,"bstar":-6.4309e-5,"rev_number":9404,"period_min":94.10480003144,"perigee_km":474.43676655298,"apogee_km":475.94038618444,"semimajor_km":6853.3255763687,"source":"CELESTRAK","updated_at":"2026-05-25T13:38:19.361949Z"}}